TimeMDT,TemperatureF,Dew PointF,Humidity,Sea Level PressureIn,VisibilityMPH,Wind Direction,Wind SpeedMPH,Gust SpeedMPH,PrecipitationIn,Events,Conditions,WindDirDegrees,DateUTC
12:15 AM,44.6,26.6,49,30.25,10.0,Calm,Calm,-,N/A,,Overcast,0,2013-04-19 06:15:00
12:35 AM,44.6,26.6,49,30.25,10.0,ESE,3.5,-,N/A,,Overcast,120,2013-04-19 06:35:00
12:55 AM,44.6,26.6,49,30.24,10.0,Calm,Calm,-,N/A,,Mostly Cloudy,0,2013-04-19 06:55:00
1:15 AM,44.6,28.4,53,30.23,10.0,SE,3.5,-,N/A,,Mostly Cloudy,130,2013-04-19 07:15:00
1:35 AM,44.6,28.4,53,30.23,10.0,ESE,3.5,-,N/A,,Mostly Cloudy,120,2013-04-19 07:35:00
1:55 AM,42.8,28.4,57,30.23,10.0,Calm,Calm,-,N/A,,Clear,0,2013-04-19 07:55:00
2:15 AM,41.0,28.4,61,30.22,10.0,ESE,3.5,-,N/A,,Partly Cloudy,120,2013-04-19 08:15:00
2:35 AM,41.0,26.6,57,30.22,10.0,East,3.5,-,N/A,,Mostly Cloudy,80,2013-04-19 08:35:00
2:55 AM,41.0,26.6,57,30.22,10.0,East,4.6,-,N/A,,Overcast,80,2013-04-19 08:55:00
3:15 AM,41.0,26.6,57,30.21,10.0,East,3.5,-,N/A,,Overcast,90,2013-04-19 09:15:00
3:35 AM,41.0,28.4,61,30.21,10.0,Calm,Calm,-,N/A,,Overcast,0,2013-04-19 09:35:00
3:55 AM,41.0,28.4,61,30.20,10.0,East,4.6,-,N/A,,Overcast,100,2013-04-19 09:55:00
4:15 AM,39.2,28.4,65,30.20,10.0,SSE,3.5,-,N/A,,Overcast,160,2013-04-19 10:15:00
4:35 AM,41.0,28.4,61,30.20,10.0,East,4.6,-,N/A,,Overcast,80,2013-04-19 10:35:00
4:55 AM,41.0,30.2,65,30.20,10.0,South,3.5,-,N/A,,Overcast,190,2013-04-19 10:55:00
5:15 AM,41.0,28.4,61,30.19,10.0,SE,3.5,-,N/A,,Overcast,140,2013-04-19 11:15:00
5:35 AM,41.0,28.4,61,30.19,10.0,ESE,4.6,-,N/A,,Overcast,120,2013-04-19 11:35:00
5:55 AM,42.8,28.4,57,30.19,10.0,Calm,Calm,-,N/A,,Overcast,0,2013-04-19 11:55:00
6:15 AM,41.0,28.4,61,30.20,10.0,North,-9999.0,-,N/A,,Overcast,0,2013-04-19 12:15:00
6:35 AM,41.0,32.0,70,30.20,10.0,North,-9999.0,-,N/A,,Overcast,0,2013-04-19 12:35:00
6:55 AM,41.0,33.8,76,30.20,9.0,Calm,Calm,-,N/A,,Mostly Cloudy,0,2013-04-19 12:55:00
7:15 AM,41.0,37.4,87,30.20,5.0,SE,3.5,-,N/A,,Scattered Clouds,130,2013-04-19 13:15:00
7:35 AM,41.0,39.2,93,30.19,6.0,SSE,4.6,-,0.01,,Clear,150,2013-04-19 13:35:00
7:55 AM,41.0,39.2,93,30.19,8.0,ESE,4.6,-,0.01,,Mostly Cloudy,110,2013-04-19 13:55:00
8:15 AM,41.0,41.0,100,30.19,7.0,Calm,Calm,-,N/A,,Mostly Cloudy,0,2013-04-19 14:15:00
8:35 AM,41.0,41.0,100,30.19,7.0,Calm,Calm,-,0.01,,Mostly Cloudy,0,2013-04-19 14:35:00
8:55 AM,42.8,42.8,100,30.19,5.0,Calm,Calm,-,0.01,,Mostly Cloudy,0,2013-04-19 14:55:00
9:15 AM,44.6,44.6,100,30.18,5.0,SE,3.5,-,0.01,,Mostly Cloudy,140,2013-04-19 15:15:00
9:35 AM,44.6,44.6,100,30.17,5.0,ESE,5.8,-,0.02,,Partly Cloudy,110,2013-04-19 15:35:00
9:55 AM,44.6,44.6,100,30.16,8.0,ESE,5.8,-,0.02,,Clear,120,2013-04-19 15:55:00
10:15 AM,46.4,46.4,100,30.15,9.0,ESE,9.2,-,N/A,,Mostly Cloudy,120,2013-04-19 16:15:00
10:35 AM,46.4,46.4,100,30.15,8.0,ESE,8.1,-,N/A,,Overcast,110,2013-04-19 16:35:00
10:55 AM,48.2,46.4,93,30.14,10.0,SE,8.1,-,N/A,,Mostly Cloudy,130,2013-04-19 16:55:00
11:15 AM,48.2,48.2,100,30.14,9.0,SE,9.2,-,N/A,,Scattered Clouds,130,2013-04-19 17:15:00
11:35 AM,50.0,48.2,94,30.13,10.0,SE,8.1,-,N/A,,Mostly Cloudy,130,2013-04-19 17:35:00
11:55 AM,51.8,48.2,88,30.12,10.0,East,9.2,-,N/A,,Mostly Cloudy,100,2013-04-19 17:55:00
12:15 PM,53.6,48.2,82,30.12,10.0,SE,6.9,-,N/A,,Partly Cloudy,140,2013-04-19 18:15:00
12:35 PM,53.6,48.2,82,30.11,10.0,SSE,5.8,-,N/A,,Mostly Cloudy,150,2013-04-19 18:35:00
12:55 PM,53.6,46.4,77,30.11,10.0,SE,6.9,-,N/A,,Scattered Clouds,140,2013-04-19 18:55:00
1:15 PM,51.8,48.2,88,30.11,4.0,SSW,4.6,-,N/A,,Mostly Cloudy,200,2013-04-19 19:15:00
1:35 PM,51.8,50.0,94,30.10,4.0,WSW,9.2,-,0.01,,Partly Cloudy,250,2013-04-19 19:35:00
1:55 PM,51.8,50.0,94,30.10,5.0,WSW,10.4,-,0.01,,Partly Cloudy,240,2013-04-19 19:55:00
2:15 PM,51.8,50.0,94,30.09,5.0,West,6.9,-,N/A,,Scattered Clouds,270,2013-04-19 20:15:00
2:35 PM,50.0,50.0,100,30.09,5.0,West,5.8,-,0.01,,Partly Cloudy,260,2013-04-19 20:35:00
2:55 PM,51.8,50.0,94,30.08,8.0,West,6.9,-,0.01,,Clear,260,2013-04-19 20:55:00
3:15 PM,51.8,51.8,100,30.07,8.0,West,10.4,-,0.01,,Partly Cloudy,260,2013-04-19 21:15:00
3:35 PM,51.8,51.8,100,30.07,5.0,West,9.2,-,0.01,,Scattered Clouds,260,2013-04-19 21:35:00
3:55 PM,50.0,50.0,100,30.06,5.0,West,12.7,19.6,0.02,,Clear,260,2013-04-19 21:55:00
4:15 PM,50.0,50.0,100,30.05,10.0,West,9.2,-,N/A,,Clear,260,2013-04-19 22:15:00
4:35 PM,51.8,48.2,88,30.04,10.0,West,8.1,-,N/A,,Clear,280,2013-04-19 22:35:00
4:55 PM,53.6,46.4,77,30.03,10.0,West,6.9,-,N/A,,Clear,270,2013-04-19 22:55:00
5:15 PM,53.6,46.4,77,30.03,10.0,WNW,3.5,-,N/A,,Clear,290,2013-04-19 23:15:00
5:35 PM,53.6,46.4,77,30.02,10.0,NW,3.5,-,N/A,,Mostly Cloudy,310,2013-04-19 23:35:00
5:55 PM,53.6,46.4,77,30.02,9.0,Calm,Calm,-,N/A,,Mostly Cloudy,0,2013-04-19 23:55:00
6:15 PM,53.6,46.4,77,30.02,10.0,NNE,3.5,-,N/A,,Partly Cloudy,30,2013-04-20 00:15:00
6:35 PM,55.4,46.4,72,30.01,10.0,Calm,Calm,-,N/A,,Scattered Clouds,0,2013-04-20 00:35:00
6:55 PM,55.4,44.6,67,30.01,10.0,Calm,Calm,-,N/A,,Clear,0,2013-04-20 00:55:00
7:15 PM,53.6,46.4,77,30.01,10.0,SW,5.8,-,N/A,,Partly Cloudy,230,2013-04-20 01:15:00
7:35 PM,53.6,48.2,82,30.01,10.0,SW,6.9,-,N/A,,Mostly Cloudy,230,2013-04-20 01:35:00
7:55 PM,48.2,48.2,100,30.04,2.0,NNW,10.4,-,0.07,,Overcast,340,2013-04-20 01:55:00
8:15 PM,48.2,48.2,100,30.03,9.0,Calm,Calm,-,N/A,,Mostly Cloudy,0,2013-04-20 02:15:00
8:35 PM,48.2,48.2,100,30.03,10.0,West,3.5,-,N/A,,Mostly Cloudy,260,2013-04-20 02:35:00
8:55 PM,48.2,48.2,100,30.05,10.0,WNW,8.1,-,N/A,,Mostly Cloudy,300,2013-04-20 02:55:00
9:15 PM,50.0,46.4,87,30.05,10.0,NW,5.8,-,N/A,,Overcast,310,2013-04-20 03:15:00
9:35 PM,48.2,48.2,100,30.06,10.0,NW,5.8,-,N/A,,Overcast,310,2013-04-20 03:35:00
9:55 PM,50.0,48.2,94,30.07,10.0,NW,4.6,-,N/A,,Overcast,310,2013-04-20 03:55:00
10:15 PM,48.2,48.2,100,30.07,10.0,West,5.8,-,N/A,,Overcast,280,2013-04-20 04:15:00
10:35 PM,48.2,48.2,100,30.07,10.0,NW,5.8,-,N/A,,Overcast,310,2013-04-20 04:35:00
10:55 PM,48.2,48.2,100,30.08,6.0,NW,5.8,-,N/A,,Overcast,320,2013-04-20 04:55:00
11:15 PM,48.2,48.2,100,30.08,10.0,WNW,6.9,-,N/A,,Overcast,300,2013-04-20 05:15:00
11:35 PM,48.2,48.2,100,30.08,10.0,NNW,4.6,-,N/A,,Overcast,330,2013-04-20 05:35:00
11:55 PM,48.2,46.4,93,30.09,10.0,NNW,5.8,-,N/A,,Overcast,330,2013-04-20 05:55:00